Other Public Products
Issued by NWS Charleston, SC

Current Version | Previous Version | Graphics & Text | Print | Product List | Glossary On
Versions: 1 2 3 4 5 6 7 8 9 10 11 12 13 14 15 16 17 18 19 20 21 22 23 24 25 26 27 28 29 30 31 32 33 34 35 36 37 38 39 40 41 42 43 44 45 46 47 48 49 50
000
FPUS82 KCHS 260612
OPUCHS

TEST...KCHS/KSAV Gateway Observations...TEST
National Weather Service Charleston SC
200 AM EDT WED JUL 26 2017

NOTE: "fair" indicates few or no clouds below 12,000 feet with no
significant weather and/or obstructions to visibility.

SCZ050-WAZ558-NCZ071-TXZ119-213-PAZ071-DCZ001-FLZ074-172-MI076-
NYZ176-178-MAZ016-IL014-TNZ027-NJZ106-GAZ044-MD014-260700-

...Gateway Observations for Charleston International...

CITY           SKY/WX    TMP DP  RH WIND       PRES   REMARKS
Chas Airport   MOCLDY    75  71  87 CALM      30.06F
6HR MIN TEMP:  75; 6HR MAX TEMP:  80;

Seattle        CLEAR     74  54  49 NE10      30.01R
6HR MIN TEMP:  73; 6HR MAX TEMP:  86;

Charlotte      CLOUDY    81  73  76 E7        30.12S
6HR MIN TEMP:  76; 6HR MAX TEMP:  89;

Dallas DFW     CLEAR     87  71  58 S15       30.03S HX  93
6HR MIN TEMP:  86; 6HR MAX TEMP:  95;

Dallas Love    CLEAR     86  70  58 S14       30.05R HX  90
6HR MIN TEMP:  86; 6HR MAX TEMP:  96;

Philladelphia  CLOUDY    68  63  84 NE6       30.22S
6HR MIN TEMP:  68; 6HR MAX TEMP:  76; 6HR PCP:  0.01;

Wash National  PTCLDY    73  63  70 NE9       30.20S
6HR MIN TEMP:  73; 6HR MAX TEMP:  78;

Baltimore      PTCLDY    64  62  93 NW3       30.19S
6HR MIN TEMP:  64; 6HR MAX TEMP:  75;

Miami          PTCLDY    84  77  79 N3        30.10F HX  94
6HR MIN TEMP:  84; 6HR MAX TEMP:  87;

Detroit        PTCLDY    65  60  84 CALM      30.20F
6HR MIN TEMP:  65; 6HR MAX TEMP:  76;

Newark         CLOUDY    67  57  70 NE9       30.23R
6HR MIN TEMP:  67; 6HR MAX TEMP:  71;

Laguardia      CLOUDY    67  59  75 NE10      30.22S
6HR MIN TEMP:  67; 6HR MAX TEMP:  70;

J F K          CLOUDY    67  61  81 E9        30.24R
6HR MIN TEMP:  67; 6HR MAX TEMP:  69;

Boston Logan   CLEAR     61  54  77 W3        30.21F
6HR MIN TEMP:  60; 6HR MAX TEMP:  63;

Ft. Lauderdale PTCLDY    84  78  82 E6        30.09F HX  95
6HR MIN TEMP:  83; 6HR MAX TEMP:  86;

Chicago O`Hare MOCLDY    70  58  65 S8        30.11S
6HR MIN TEMP:  69; 6HR MAX TEMP:  77;

Chicago Midway MOCLDY    72  58  61 S7        30.11F
6HR MIN TEMP:  72; 6HR MAX TEMP:  79;

Houston Bush   CLOUDY    83  73  72 S6        30.09F
6HR MIN TEMP:  83; 6HR MAX TEMP:  90;

Houston Hobby  CLOUDY    82  72  71 S5        30.08F
6HR MIN TEMP:  82; 6HR MAX TEMP:  90;

Nashville      PTCLDY    80  72  76 E6        30.11S
6HR MIN TEMP:  79; 6HR MAX TEMP:  89;

Atlanta        PTCLDY    76  72  87 SW5       30.10F
6HR MIN TEMP:  76; 6HR MAX TEMP:  81;


$$

GAZ044-118-TXZ119-213-NCZ071-DCZ001-MDZ014-506-PAZ021-071-NJZ106-
NYZ176-178-MAZ106-OHZ011-021-055-MIZ076-KYZ091-ILZ014-INZ047-
MNZ060-ONZ431-260700-

...Gateway Observations for Savannah International...

CITY           SKY/WX    TMP DP  RH WIND       PRES   REMARKS
Savannah Arpt  MOCLDY   N/A N/A N/A N6        30.09R
                                      6HR PCP: TRACE;

Atlanta        PTCLDY    76  72  87 SW5       30.10F
6HR MIN TEMP:  76; 6HR MAX TEMP:  81;

Charlotte      CLOUDY    81  73  76 E7        30.12S
6HR MIN TEMP:  76; 6HR MAX TEMP:  89;

Dallas DFW     CLEAR     87  71  58 S15       30.03S HX  93
6HR MIN TEMP:  86; 6HR MAX TEMP:  95;

Houston Bush   CLOUDY    83  73  72 S6        30.09F
6HR MIN TEMP:  83; 6HR MAX TEMP:  90;

Wash National  PTCLDY    73  63  70 NE9       30.20S
6HR MIN TEMP:  73; 6HR MAX TEMP:  78;

Wash Dulles    CLEAR     64  60  87 W3        30.21S
6HR MIN TEMP:  63; 6HR MAX TEMP:  75;

Baltimore      PTCLDY    64  62  93 NW3       30.19S
6HR MIN TEMP:  64; 6HR MAX TEMP:  75;

Philadelphia   CLOUDY    68  63  84 NE6       30.22S
6HR MIN TEMP:  68; 6HR MAX TEMP:  76; 6HR PCP:  0.01;

Newark         CLOUDY    67  57  70 NE9       30.23R
6HR MIN TEMP:  67; 6HR MAX TEMP:  71;

Laguardia      CLOUDY    67  59  75 NE10      30.22S
6HR MIN TEMP:  67; 6HR MAX TEMP:  70;

J F K          CLOUDY    67  61  81 E9        30.24R
6HR MIN TEMP:  67; 6HR MAX TEMP:  69;

Boston         CLEAR     61  54  77 W3        30.21F
6HR MIN TEMP:  60; 6HR MAX TEMP:  63;

Pittsburg      CLEAR     62  60  93 CALM      30.21F
6HR MIN TEMP:  62; 6HR MAX TEMP:  73;

Akron          CLEAR     61  54  77 CALM      30.22S
6HR MIN TEMP:  61; 6HR MAX TEMP:  75;

Cleveland      CLEAR     64  57  78 SE3       30.22F
6HR MIN TEMP:  64; 6HR MAX TEMP:  72;

Cincinnati     CLEAR     66  62  87 E7        30.19R
6HR MIN TEMP:  66; 6HR MAX TEMP:  78;

Columbus       CLEAR     61  60  97 CALM      30.19F
Detroit        PTCLDY    65  60  84 CALM      30.20F
6HR MIN TEMP:  65; 6HR MAX TEMP:  76;

Chicago O`Hare MOCLDY    70  58  65 S8        30.11S
6HR MIN TEMP:  69; 6HR MAX TEMP:  77;

Minneapolis    CLOUDY    77  73  87 CALM      29.99R
6HR MIN TEMP:  76; 6HR MAX TEMP:  81; 6HR PCP:  0.22;

Indianapolis   CLEAR     67  61  81 SE9       30.16S
6HR MIN TEMP:  67; 6HR MAX TEMP:  77;

Toronto Canada CLEAR     61  55  82 W5        30.21R

$$




USA.gov is the U.S. government's official web portal to all federal, state and local government web resources and services.